ICEYE-X12

导读 | 星芒AI

ICEYE-X12 是 ICEYE 公司研发的一颗合成孔径雷达(SAR)卫星,具备高分辨率成像能力,可在任何天气和光照条件下提供实时地球观测数据。该卫星采用小型卫星平台,提高了任务灵活性和部署效率。作为 ICEYE 卫星星座的一部分,ICEYE-X12 用于支持灾害监测、环境管理、国防安全等应用,增强全球范围内的地球观测能力。

基本信息
目录编号:
48914
目录名称:
ICEYE-X12
国际标识:
2021-059AM
轨道中心:
EARTH
卫星名称:
ICEYE-X12
卫星全名:
--
卫星状态:
已陨落 最后检测时间 2025-01-22
发射日期:
2021-06-30 UTC
国别 :
(FI)
星等 :
--
轨道信息
数据来源 国际轨道数据
星历时间: 2025-01-18T15:31:55+0800
轨道信息已过期331天
半长轴: 6556.431km
偏心率: 0.0009717
轨道倾角: 97.610°
近地点辐角 299.842°
升交点赤经 177.606°
平近点角 60.191°
近地点: 171.925km
远地点: 184.667km
周期: 88.056分钟
每日圈数: 16.353154
详细信息
使用方式:
暂无